SCP
0 0 0 0 0 0 0 0 0 0 0 0 0 0 0 0 0 0 0 0 0 0 0 0 0 0 0 0 0 0 0 0 0 0 0 0 0 0 0 0 0 0 0 0
0 0 0 0 0 0 0 0 0 0 0 0 0 0 0 0 0 0 0 0 0 0 0 0 0 0 0 0 0 0 0 0 0 0 0 0 0 0 0 0 0 0 0 0
0 0 0 0 0 0 0 0 0 0 0 0 0 0 0 0 0 0 0 0 0 0 0 0 0 0 0 0 0 0 0 0 0 0 0 0 0 0 0 0 0 0 0 0
0 0 0 0 0 0 0 0 0 0 0 0 0 0 0 0 0 0 0 0 0 0 0 0 0 0 0 0 0 0 0 0 0 0 0 0 0 0 0 0 0 0 0 0
0 0 0 0 0 0 0 0 0 0 0 0 0 0 0 0 0 0 0 0 0 0 0 0 0 0 0 0 0 0 0 0 0 0 0 0 0 0 0 0 0 0 0 0
0 0 0 0 0 0 0 0 0 0 0 0 0 0 0 0 0 0 0 0 0 0 0 0 0 0 0 0 0 0 0 0 0 0 0 0 0 0 0 0 0 0 0 0
0 0 0 0 0 0 0 0 0 0 0 0 0 0 0 0 0 0 0 0 0 0 0 0 0 0 0 0 0 0 0 0 0 0 0 0 0 0 0 0 0 0 0 0
0 0 0 0 0 0 0 0 0 0 0 0 0 0 0 0 0 0 0 0 0 0 0 0 0 0 0 0 0 0 0 0 0 0 0 0 0 0 0 0 0 0 0 0
0 0 0 0 0 0 0 0 0 0 0 0 0 0 0 0 0 0 0 0 0 0 0 0 0 0 0 0 0 0 0 0 0 0 0 0 0 0 0 0 0 0 0 0
0 0 0 0 0 0 0 0 0 0 0 0 0 0 0 0 0 0 0 0 0 0 0 0 0 0 0 0 0 0 0 0 0 0 0 0 0 0 0 0 0 0 0 0
0 0 0 0 0 0 0 0 0 0 0 0 0 0 0 0 0 0 0 0 0 0 0 0 0 0 0 0 0 0 0 0 0 0 0 0 0 0 0 0 0 0 0 0
0 0 0 0 0 0 0 0 0 0 0 0 0 0 0 0 0 0 0 0 0 0 0 0 0 0 0 0 0 0 0 0 0 0 0 0 0 0 0 0 0 0 0 0
0 0 0 0 0 0 0 0 0 0 0 0 0 0 0 0 0 0 0 0 0 0 0 0 0 0 0 0 0 0 0 0 0 0 0 0 0 0 0 0 0 0 0 0
0 0 0 0 0 0 0 0 0 0 0 0 0 0 0 0 0 0 0 0 0 0 0 0 0 0 0 0 0 0 0 0 0 0 0 0 0 0 0 0 0 0 0 0
0 0 0 0 0 0 0 0 0 0 0 0 0 0 0 0 0 0 0 0 0 0 0 0 0 0 0 0 0 0 0 0 0 0 0 0 0 0 0 0 0 0 0 0
0 0 0 0 0 0 0 0 0 0 0 0 0 0 0 0 0 0 0 0 0 0 0 0 0 0 0 0 0 0 0 0 0 0 0 0 0 0 0 0 0 0 0 0
0 0 0 0 0 0 0 0 0 0 0 0 0 0 0 0 0 0 0 0 0 0 0 0 0 0 0 0 0 0 0 0 0 0 0 0 0 0 0 0 0 0 0 0
0 0 0 0 0 0 0 0 0 0 0 0 0 0 0 0 0 0 0 0 0 0 0 0 0 0 0 0 0 0 0 0 0 0 0 0 0 0 0 0 0 0 0 0
0 0 0 0 0 0 0 0 0 0 0 0 0 0 0 0 0 0 0 0 0 0 0 0 0 0 0 0 0 0 0 0 0 0 0 0 0 0 0 0 0 0 0 0
0 0 0 0 0 0 0 0 0 0 0 0 0 0 0 0 0 0 0 0 0 0 0 0 0 0 0 0 0 0 0 0 0 0 0 0 0 0 0 0 0 0 0 0
0 0 0 0 0 0 0 0 0 0 0 0 0 0 0 0 0 0 0 0 0 0 0 0 0 0 0 0 0 0 0 0 0 0 0 0 0 0 0 0 0 0 0 0
0 0 0 0 0 0 0 0 0 0 0 0 0 0 0 0 0 0 0 0 0 0 0 0 0 0 0 0 0 0 0 0 0 0 0 0 0 0 0 0 0 0 0 0
0 0 0 0 0 0 0 0 0 0 0 0 0 0 0 0 0 0 0 0 0 0 0 0 0 0 0 0 0 0 0 0 0 0 0 0 0 0 0 0 0 0 0 0
0 0 0 0 0 0 0 0 0 0 0 0 0 0 0 0 0 0 0 0 0 0 0 0 0 0 0 0 0 0 0 0 0 0 0 0 0 0 0 0 0 0 0 0
0 0 0 0 0 0 0 0 0 0 0 0 0 0 0 0 0 0 0 0 0 0 0 0 0 0 0 0 0 0 0 0 0 0 0 0 0 0 0 0 0 0 0 0
0 0 0 0 0 0 0 0 0 0 0 0 0 0 0 0 0 0 0 0 0 0 0 0 0 0 0 0 0 0 0 0 0 0 0 0 0 0 0 0 0 0 0 0
0 0 0 0 0 0 0 0 0 0 0 0 0 0 0 0 0 0 0 0 0 0 0 0 0 0 0 0 0 0 0 0 0 0 0 0 0 0 0 0 0 0 0 0
Wind_Speed
5 4 2 2 3 5 4 2 2 2 2 2 1 1 2 3 4 5 6 7 8 7 8 8 8 9 9 9 9 9 9 10 10 10 10 10 10 10 10 9 9 8 8 8
5 3 2 4 5 6 5 4 4 4 4 3 2 2 2 1 3 4 6 7 7 7 7 7 8 7 8 8 8 8 9 9 9 9 10 10 10 10 10 10 9 9 9 9
4 3 5 8 9 11 7 7 7 6 4 6 5 3 2 1 2 3 4 5 6 7 7 7 7 7 7 8 8 8 9 9 9 9 10 10 10 10 10 9 10 10 10 9
2 4 5 4 3 7 8 8 9 6 5 6 5 3 2 2 2 2 3 4 5 6 6 6 6 6 6 6 7 8 9 9 9 9 9 9 9 9 9 8 8 8 9 9
3 4 4 3 6 8 9 8 12 11 9 8 5 5 5 4 3 1 2 3 4 5 5 5 5 5 5 6 7 8 8 8 8 8 9 9 9 9 8 8 8 8 8 9
4 5 4 2 7 7 6 7 11 14 13 11 9 6 5 5 4 2 1 2 3 3 4 4 4 4 4 5 6 7 7 7 7 7 8 8 8 8 7 7 7 7 8 9
7 6 5 5 10 10 7 1 10 15 14 14 12 4 6 6 4 3 1 1 2 3 3 3 3 3 3 4 6 5 5 5 6 6 7 7 7 7 7 7 7 7 8 8
6 6 3 11 12 11 5 4 9 13 14 14 11 6 6 6 5 4 2 1 2 2 2 2 2 2 2 3 3 3 3 4 5 6 6 5 6 6 7 7 7 7 7 8
7 4 4 13 10 7 3 6 8 12 13 13 12 10 8 7 6 5 3 2 1 2 1 1 1 2 2 2 2 1 2 3 3 4 5 5 6 6 6 6 6 6 6 6
7 9 8 12 12 8 7 7 7 11 13 14 13 11 10 8 7 6 4 3 2 2 1 1 1 0 1 1 2 1 1 2 2 2 3 4 4 5 5 6 6 6 6 6
9 7 6 10 16 15 11 9 8 10 12 14 13 12 11 9 8 6 5 4 3 2 1 0 0 0 1 1 2 2 1 1 1 2 2 2 3 4 5 5 6 5 5 5
7 6 7 5 9 16 15 14 12 13 13 13 13 12 11 9 8 7 6 5 4 3 2 1 1 1 2 2 3 2 1 1 1 1 1 0 1 2 3 2 4 4 6 6
4 2 4 2 4 13 16 16 14 14 14 14 13 12 11 9 8 8 7 6 5 4 3 2 2 2 2 3 3 3 2 2 2 1 1 1 0 1 1 3 4 2 3 5
7 5 6 7 7 11 14 15 14 14 14 14 13 12 11 10 9 9 8 7 6 5 4 4 4 3 2 3 3 4 3 3 2 2 2 1 1 1 1 1 1 2 4 3
13 12 7 4 6 10 12 13 14 14 14 14 13 12 12 12 11 10 8 7 6 6 6 5 5 4 3 3 4 4 4 3 3 3 3 2 2 2 1 1 1 1 1 4
10 12 11 9 10 11 14 16 16 16 15 15 14 13 13 12 10 9 8 8 8 8 6 6 6 4 4 4 4 4 3 3 3 4 4 3 3 3 2 2 2 1 1 1
10 12 14 15 14 15 16 17 16 16 16 16 15 14 13 12 11 10 10 9 9 7 7 6 6 5 5 5 5 4 4 4 6 5 4 4 4 4 3 3 2 2 1 1
14 13 14 15 15 15 16 16 16 16 16 16 15 14 14 14 13 12 11 10 9 8 8 8 7 6 6 6 5 4 4 4 5 5 4 4 4 5 4 4 4 4 3 3
14 13 13 13 13 13 14 15 15 15 15 15 15 15 15 14 13 12 10 10 10 10 9 8 7 8 7 6 5 5 5 5 5 5 5 4 5 6 5 5 5 5 4 4
12 13 12 12 11 11 12 12 13 14 14 15 15 15 15 14 13 12 11 11 9 8 7 6 9 9 8 7 7 5 5 6 5 5 5 5 6 6 6 6 6 6 5 5
10 10 11 12 11 11 11 11 12 13 14 15 16 16 15 14 13 12 11 10 10 9 8 8 7 7 7 6 8 6 6 6 6 5 5 5 6 6 6 6 6 6 6 6
8 8 9 10 10 10 10 10 11 12 13 14 15 15 14 14 13 12 12 9 7 8 8 7 8 8 7 7 7 6 6 7 6 6 6 6 6 6 6 6 6 6 6 6
9 7 6 7 8 9 8 8 10 10 12 13 14 15 14 11 10 10 10 9 7 10 8 7 8 9 10 8 7 7 7 8 7 6 6 6 6 6 6 7 6 6 6 6
10 9 7 5 4 5 6 6 7 7 9 10 11 12 11 9 8 8 7 6 8 10 8 8 10 11 11 8 7 7 8 7 7 7 6 6 6 6 6 6 6 6 6 8
12 11 9 7 4 3 3 2 4 5 6 6 8 9 8 7 7 6 7 7 9 9 8 9 12 12 10 9 9 8 8 7 7 6 7 7 7 6 7 7 7 7 6 7
12 10 9 9 7 6 4 2 1 1 2 3 4 4 4 4 5 4 4 6 9 8 7 6 8 10 9 9 9 9 8 8 8 8 8 8 8 8 7 7 9 7 7 7
11 9 8 7 7 7 6 5 4 3 2 1 1 2 2 3 4 4 5 5 6 6 6 6 6 7 7 8 8 8 8 8 7 7 8 8 7 7 7 9 7 7 6 7
Wind_Direction
87 96 142 167 185 204 238 277 270 164 198 193 185 308 333 333 344 357 8 10 10 10 11 12 16 15 16 15 15 15 21 23 21 20 21 21 25 28 32 31 31 35 38 40
140 144 208 230 214 211 220 221 220 205 212 181 190 236 264 302 344 354 4 7 7 10 10 11 15 13 15 17 18 19 26 25 21 22 24 24 26 30 32 32 32 35 38 39
168 169 246 244 215 206 207 205 204 209 182 169 195 213 249 302 323 346 356 358 1 4 7 10 15 11 16 18 20 25 30 29 23 24 26 25 29 32 30 31 32 33 35 35
196 211 246 85 116 199 213 215 213 214 180 189 197 200 233 259 283 330 358 353 0 358 3 4 10 11 17 25 26 30 30 29 27 24 27 28 29 29 29 32 33 35 34 33
243 255 266 178 184 191 209 228 210 208 196 191 189 212 206 197 225 292 343 344 345 342 344 351 5 5 8 27 33 35 32 28 26 25 27 28 29 26 25 30 33 36 39 37
234 263 257 128 151 173 208 243 196 198 194 186 190 208 158 155 181 200 271 325 331 327 337 355 6 356 7 28 33 36 32 30 30 28 28 29 29 25 27 32 35 39 43 41
238 257 263 129 145 167 212 275 163 187 189 187 197 191 123 151 172 183 208 296 312 323 340 354 351 341 14 37 42 40 36 37 36 33 35 30 30 28 30 36 39 43 48 47
213 233 240 144 163 200 228 102 169 184 187 189 192 173 159 171 176 186 200 228 305 321 348 356 348 334 30 51 58 61 54 50 44 37 33 31 35 33 34 36 41 43 44 47
222 250 69 177 197 208 212 186 183 187 187 188 189 187 187 189 188 187 197 203 264 300 317 31 22 338 27 89 104 108 89 73 57 54 48 35 32 35 36 37 37 36 38 39
249 251 225 211 219 215 212 207 193 190 187 189 192 192 191 193 191 189 192 200 224 262 283 83 72 30 31 112 170 175 124 91 82 61 57 51 32 28 30 28 30 32 31 31
245 252 228 223 219 213 206 205 194 190 190 192 193 193 193 193 192 190 188 191 212 242 269 264 200 188 146 179 205 200 172 148 118 86 55 41 46 28 21 39 25 11 20 21
232 216 210 203 200 202 200 200 196 190 190 194 197 195 194 195 190 191 192 191 202 217 231 224 221 207 170 188 224 231 200 179 171 158 130 43 47 99 98 53 56 36 20 7
250 187 209 165 189 194 198 198 195 195 193 191 196 197 195 194 190 192 195 199 206 207 218 223 217 212 178 191 220 231 222 206 203 208 193 208 311 354 81 149 162 111 55 37
220 198 205 208 200 193 196 195 194 197 197 195 193 193 195 195 192 198 203 202 204 211 219 222 221 214 196 203 216 225 220 202 216 209 218 228 245 284 325 356 52 118 125 101
215 217 226 204 189 187 190 189 192 197 196 195 192 193 194 197 199 203 203 197 202 215 221 223 223 214 201 222 227 222 215 208 209 215 218 226 229 239 250 272 323 6 95 134
210 212 221 218 205 193 190 193 197 199 197 196 194 197 199 203 204 201 198 198 208 217 218 220 224 215 208 222 227 224 215 198 227 224 220 222 224 232 238 247 263 291 331 30
203 206 209 214 212 204 201 201 204 202 199 199 199 199 199 200 202 203 202 204 215 225 223 223 223 212 211 221 226 227 221 194 201 228 231 232 235 237 239 245 254 261 264 95
228 229 218 213 208 205 205 206 208 207 203 201 199 198 199 202 205 207 206 204 210 221 226 224 219 212 211 216 224 235 233 225 216 224 228 231 237 239 241 243 244 245 239 185
238 238 232 224 219 212 207 205 206 207 204 199 198 200 203 206 210 211 206 203 211 221 222 214 201 214 214 210 217 228 235 233 230 230 234 226 233 239 238 239 241 239 236 228
251 240 233 224 216 213 210 205 201 202 201 199 199 202 205 207 209 209 206 210 216 221 216 198 196 211 216 204 202 226 232 236 238 236 237 240 240 240 238 238 241 242 237 232
269 248 234 224 214 209 208 201 198 200 198 198 202 204 206 207 205 205 206 216 219 214 210 195 209 212 213 199 196 220 228 235 238 240 240 241 244 244 242 240 238 239 239 235
296 268 246 232 220 211 205 202 199 200 197 198 203 207 207 208 204 206 210 220 217 183 194 202 209 207 199 194 209 216 225 234 238 240 242 243 246 248 246 245 242 240 239 238
325 308 278 248 232 221 205 201 201 200 199 199 201 205 207 206 202 204 212 210 208 189 199 208 202 188 187 206 216 218 225 231 235 238 240 243 245 248 250 250 247 244 242 238
348 344 334 312 269 231 213 206 204 204 203 203 206 207 206 203 205 212 221 185 185 186 204 205 197 195 201 217 217 220 226 231 233 238 241 244 247 249 250 250 249 245 243 242
358 359 1 357 348 325 293 236 200 198 199 201 203 204 207 207 208 201 201 200 188 192 208 205 204 204 210 220 219 221 224 226 230 233 236 239 242 247 250 249 248 249 246 242
358 359 360 3 4 354 348 341 303 203 194 191 188 187 192 194 205 200 197 199 197 200 211 208 201 203 215 220 223 226 229 225 221 226 234 238 242 242 246 247 249 247 248 247
348 352 353 358 3 0 355 355 354 356 344 287 208 181 187 188 190 194 198 199 197 202 209 211 210 210 214 216 221 226 229 230 230 230 232 234 238 241 244 247 248 249 249 248